Location: Unspecified
(52.1971°N, 0.0000°E)
Time: 07:46:27
(UTC+00:00)

YUBILEINY - Pass Details

Date: 23 December 2019
Orbit: 1478 x 1509 km, 82.5° (Epoch: 28 January)

Event Time Altitude Azimuth Distance (km) Brightness Sun altitude
Rises 21:37:53 0° 224° (SW) 4,603 ? -50.6°
Enters shadow 21:39:27 - 227° (SW) 4,112 ? -50.8°
Exits shadow 21:55:07 17° 356° (N) 3,120 ? -52.8°
Drops below altitude 10° 21:56:56 10° 4° (N) 3,630 ? -53.0°
Sets 22:00:10 0° 12° (NNE) 4,613 ? -53.4°
